Regional Weather Roundup
Issued by NWS San Diego, CA

Home | Current Version | Previous Version | Text Only | Print | Product List | Glossary On
Versions: 1 2 3 4 5 6 7 8 9 10 11 12 13 14 15 16 17 18 19 20 21 22 23 24 25 26 27 28 29 30 31 32 33 34 35 36 37 38 39 40 41 42 43 44 45 46 47 48 49 50
000
ASUS46 KSGX 130511
RWRSGX

SAN DIEGO HOURLY WEATHER ROUNDUP
NATIONAL WEATHER SERVICE SAN DIEGO CA
900 PM PST FRI FEB 12 2016

NOTE: "FAIR" INDICATES FEW OR NO CLOUDS BELOW 12,000 FEET WITH NO
SIGNIFICANT WEATHER AND/OR OBSTRUCTIONS TO VISIBILITY.

CAZ042-043-060-061-PZZ750-775-130600-

GREATER SAN DIEGO AREA

CITY           SKY/WX    TMP DP  RH WIND       PRES   REMARKS
LINDBERGH FLD  CLEAR     64  45  50 CALM      30.09R
POINT LOMA       N/A     63  35  34 N5          N/A
NATIONAL CITY    N/A     62  56  79 CALM      30.08S
CHULA VISTA      N/A     59  54  84 CALM      30.00R
IMPERIAL BEACH CLEAR     53  51  93 E3        30.08S FOG
BROWN FIELD    CLEAR     58  51  78 SE6       30.08R
MIRAMAR MCAS   CLEAR     57  40  52 E3        30.07S
MONTGOMERY FLD CLEAR     58  42  55 CALM      30.08R

$$

NORTH SAN DIEGO COUNTY

CITY           SKY/WX    TMP DP  RH WIND       PRES   REMARKS
CAMP PENDLETON CLEAR     49  42  77 CALM      30.08R
OCEANSIDE AP   CLEAR     53  49  86 CALM      30.07R FOG
OCEANSIDE HBR    N/A     57  52  82 NE3       30.10R
VISTA            N/A     56  40  56 CALM      30.06R
CARLSBAD       CLEAR     61  42  49 CALM      30.07R
DEL MAR          N/A     60  42  51 CALM      30.10R
FALLBROOK        N/A     62  39  42 CALM      30.05R
ESCONDIDO        N/A     62  39  42 CALM      30.08R
SAN MARCOS       N/A     63  40  44 CALM      30.05S
POWAY            N/A     55  42  61 CALM      30.09R

$$

EAST SAN DIEGO COUNTY

CITY           SKY/WX    TMP DP  RH WIND       PRES   REMARKS
RAMONA         CLEAR     49  38  65 SE3       30.10S
SANTEE LAKES     N/A     55  44  65 CALM      30.07R
LA MESA          N/A     64  42  44 CALM      30.00S
JAMUL            N/A     56  41  56 CALM      30.08R
DESCANSO N       N/A     51  32  48 NE2       30.01S
MT. LAGUNA OBS   N/A     57   5  12 CALM      29.82R
CAMPO            N/A     49  30  48 NE6       30.13R

$$

ORANGE COUNTY AND THE LOS ANGELES BASIN

CITY           SKY/WX    TMP DP  RH WIND       PRES   REMARKS
JOHN WAYNE AP  CLEAR     60  55  83 SW3       30.07R
LAGUNA BEACH     N/A     53  39  59 SE3       30.03R
LAKE FOREST FR   N/A     64  28  26 CALM      29.94S
HUNTINGTON BCH   N/A     54  52  92 CALM      30.09R
LOS ALAMITOS   CLEAR     55  52  89 CALM      30.07R
FULLERTON      CLEAR     61  49  64 CALM      30.06R
LONG BEACH     CLEAR     62  54  74 W3        30.07R
L.A. AP        CLEAR     60  55  83 W6        30.07R
L.A. DOWNTOWN  CLEAR     61  53  75 CALM      30.06R

$$

THE INLAND EMPIRE

CITY           SKY/WX    TMP DP  RH WIND       PRES   REMARKS
CORONA         CLEAR     51  40  65 NE3       30.08
CHINO          CLEAR     60  44  55 CALM      30.09R HAZE
ONTARIO        PTCLDY    64  40  41 CALM      30.08R
SAN BERNARDINO CLEAR     63  27  25 CALM      30.10R
RIVERSIDE AP   CLEAR     65  40  39 CALM      30.09R
MORENO VALLEY    N/A     64  42  45 CALM      28.21R
MARCH ARB      CLEAR     56  37  49 CALM      30.10R
HORSETHIEF CYN   N/A     61  32  33 W5        30.12R
PERRIS           N/A     66  38  36 CALM      30.12R
HEMET EAST       N/A     63  21  20 CALM      29.98R
FRENCH VALLEY  FAIR      59  36  41 CALM      30.10S
TEMECULA         N/A     61  41  46 CALM      30.04S

$$

SAN BERNARDINO AND RIVERSIDE COUNTY MOUNTAINS

CITY           SKY/WX    TMP DP  RH WIND       PRES   REMARKS
BIG BEAR AP    CLEAR     30  21  69 CALM      30.36R
PINE COVE        N/A     55  14  20 CALM      30.06S

$$

SOUTHERN DESERT INCLUDING THE COACHELLA VALLEY

CITY           SKY/WX    TMP DP  RH WIND       PRES   REMARKS
PALM SPRINGS   CLEAR     67  28  23 NW8       30.08R
THOUSAND PALMS   N/A     64  29  27 W2        30.05R
PALM DESERT      N/A     65  38  36 CALM      26.55F
THERMAL        CLEAR     53  35  50 N5        30.03R
BLYTHE         CLEAR     60  25  26 NW8       30.05S
IMPERIAL AP    CLEAR     57  35  43 W5        30.03R
EL CENTRO NAS  CLEAR     62  30  29 CALM      30.06R
MEXICALI       CLEAR     64  30  27 CALM      30.04R

$$

UPPER DESERT

CITY           SKY/WX    TMP DP  RH WIND       PRES   REMARKS
VICTORVILLE AP CLEAR     48  21  34 CALM      30.18R
HESPERIA         N/A     54  28  37 CALM      30.28S
APPLE VALLEY     N/A     50  22  34 CALM      30.19R
PALMDALE       CLEAR     51  27  39 SW8       30.17S
LANCASTER      CLEAR     47  31  53 W7        30.17R
EDWARDS AFB    PTCLDY    48  25  40 SW8       30.15R
DAGGETT        CLEAR     54  19  25 SW3       30.15R
29 PALMS N     CLEAR     57  18  21 W9        30.21R
NEEDLES        CLEAR     64  25  22 NW6       30.10R

$$

REGIONAL REPORTS

CITY           SKY/WX    TMP DP  RH WIND       PRES   REMARKS
SANTA BARBARA  CLEAR     53  52  96 E3        30.05R FOG
SANDBERG       CLEAR     57  28  33 NW10      30.24S
LAS VEGAS NV   PTCLDY    59  25  27 CALM      30.13R
PHOENIX AZ     CLEAR     67  30  25 SW3       30.05R
TIJUANA        CLEAR     59  48  67 CALM      30.10R
ENSENADA NW      N/A     61  32  34 CALM      30.06R

$$

OFFSHORE ISLANDS

CITY           SKY/WX    TMP DP  RH WIND       PRES   REMARKS
CATALINA ARPT  CLEAR     66  23  19 NW7       30.12R
SAN NICOLAS IS CLEAR    N/A N/A N/A W8        30.08R

$$

MARINE AND OFFSHORE BUOY REPORTS

STATION/POSITION SKY/WX   TEMP    WIND        PRES    SWELL
                          AIR SEA DIR/SP/G            HT/PER/DIR
                          (F)     (DEG/KT/KT) (MB)    (FT/S/D)
TANNER BANKS               59 60  310/  8/ 10 1018.9R  11/330/17
S CLEMENTE BASIN           54 61  290/  8/ 10 1018.9R   7/290/19
SAN NICOLAS IS.               58                N/A    10/290/18
SO. S. ROSA ISLA           59 59              1017.6R
W. S. BARBARA CH           58 58  320/ 19/ 23 1017.4R  10/300/17
M. S. BARBARA CH           59 60  230/ 10/ 12 1017.9F
S. MONICA BASIN            60 61  260/  2/  4 1018.3R   5/270/17
S PEDRO CHANNEL               61                N/A     5/270/18
DANA POINT                    61                N/A     3/260/17
OCEANSIDE OFFSHR              62                N/A     3/220/13
TORREY PINES OTR              62                N/A     5/270/17
LA JOLLA 1                 62 61  110/  1/  2 1017.9F
SAN DIEGO BAY                 62              1018.6F
POINT LOMA SOUTH              62                N/A     3/260/17

$$




USA.gov is the U.S. government's official web portal to all federal, state and local government web resources and services.